This demonstration page uses our WeatherBlox Daily Observations layout. Learn more.

Left ArrowRight Arrow

Hourly Observations for September 20, 2020

Temp ( °F °C ) Dew Point ( °F °C ) Humidity (%) Winds ( mph kmh ) Pressure ( in mb ) Visibility ( mi km ) Precip ( " mm )
12:15 am 00:15 Clear 65 18.3 55 12.6 70 70 SSE 14 22 29.96 1015 7 11 N/A
12:35 am 00:35 Clear 64 18 55 12.6 71 71 SSE 15 24 29.97 1015 7 11 N/A
12:55 am 00:55 Clear 64 17.8 55 12.7 72 72 SSE 14 22 29.97 1015 7 11 N/A
1:15 am 01:15 Clear 64 17.5 55 12.7 74 74 SSE 14 22 29.97 1015 7 11 N/A
1:35 am 01:35 Clear 63 17.2 55 12.6 75 75 SSE 15 24 29.97 1015 7 11 N/A
1:55 am 01:55 Clear 63 17.1 55 12.7 75 75 S 14 22 29.97 1015 7 11 N/A
2:15 am 02:15 Clear 62 16.7 55 12.6 77 77 SSE 13 20 29.98 1015 7 11 N/A
2:35 am 02:35 Clear 62 16.5 55 12.6 78 78 SSE 14 22 29.98 1015 7 11 N/A
2:55 am 02:55 Clear 61 16.1 55 12.6 80 80 SSE 12 19 29.97 1015 7 11 N/A
3:15 am 03:15 Clear 61 16 55 12.6 80 80 SSE 14 22 29.97 1015 7 11 N/A
3:35 am 03:35 Clear 60 15.7 55 12.6 82 82 SSE 15 24 29.97 1015 7 11 N/A
3:55 am 03:55 Clear 61 15.9 55 12.7 81 81 SSE 15 24 29.97 1015 7 11 N/A
4:15 am 04:15 Clear 61 16 55 12.6 80 80 S 15 24 29.97 1015 7 11 N/A
4:35 am 04:35 Clear 60 15.6 55 12.6 82 82 SSE 13 20 29.96 1015 7 11 N/A
4:55 am 04:55 Clear 60 15.5 55 12.6 83 83 SSE 15 24 29.97 1015 7 11 N/A
5:15 am 05:15 Clear 60 15.6 55 12.6 82 82 S 16 26 29.97 1015 7 11 N/A
5:35 am 05:35 Clear 60 15.5 55 12.6 83 83 S 18 30 29.97 1015 7 11 N/A
5:55 am 05:55 Clear 60 15.3 55 12.5 84 84 S 15 24 29.98 1015 7 11 N/A
6:15 am 06:15 Clear 60 15.6 55 12.5 82 82 S 14 22 29.98 1015 7 11 N/A
6:35 am 06:35 Clear 60 15.3 55 12.5 84 84 S 12 19 30.00 1016 7 11 N/A
6:55 am 06:55 Clear 59 15 55 12.5 85 85 SSE 13 20 29.99 1016 7 11 N/A
7:15 am 07:15 Clear 59 15 55 12.5 85 85 SSE 16 26 29.98 1015 7 11 N/A
7:35 am 07:35 Sunny 59 15 55 12.5 85 85 SSE 16 26 29.98 1015 7 11 N/A
7:55 am 07:55 Sunny 59 14.8 55 12.5 86 86 S 15 24 29.99 1016 7 11 N/A
8:15 am 08:15 Sunny 59 15 55 12.5 85 85 S 16 26 30.01 1016 7 11 N/A
8:35 am 08:35 Sunny 59 15.2 55 12.5 84 84 S 15 24 30.02 1017 7 11 N/A
8:55 am 08:55 Sunny 60 15.8 55 12.5 81 81 S 15 24 30.01 1016 7 11 N/A
9:15 am 09:15 Sunny 62 16.6 55 12.5 77 77 S 15 24 30.01 1016 7 11 N/A
9:35 am 09:35 Sunny 64 17.5 55 12.5 73 73 S 15 24 30.01 1016 7 11 N/A
9:55 am 09:55 Sunny 65 18.4 55 12.5 69 69 S 15 24 30.00 1016 7 11 N/A
10:15 am 10:15 Sunny 67 19.4 55 12.5 65 65 S 17 28 29.99 1016 7 11 N/A
10:35 am 10:35 Sunny 68 20.1 54 12.4 61 61 SSW 18 30 29.99 1015 7 11 N/A
10:55 am 10:55 Sunny 70 21.1 54 12.4 58 58 SSW 22 35 29.98 1015 7 11 N/A
11:15 am 11:15 Sunny 71 21.5 54 12.4 56 56 S 18 30 29.97 1015 7 11 N/A
11:35 am 11:35 Sunny 72 22.1 55 12.5 55 55 S 16 26 29.97 1015 7 11 N/A
11:55 am 11:55 Sunny 73 22.8 54 12.4 52 52 S 17 28 29.96 1015 7 11 N/A
12:15 pm 12:15 Sunny 74 23.4 54 12.4 50 50 S 15 24 29.96 1015 7 11 N/A
12:35 pm 12:35 Sunny 75 24 54 12.3 48 48 S 17 28 29.95 1014 7 11 N/A
12:55 pm 12:55 Sunny 77 24.9 55 12.5 46 46 S 15 24 29.95 1014 7 11 N/A
1:15 pm 13:15 Sunny 78 25.5 54 12.4 44 44 S 16 26 29.94 1014 7 11 N/A
1:35 pm 13:35 Sunny 79 26.1 54 12.3 42 42 S 15 24 29.93 1013 7 11 N/A
1:55 pm 13:55 Sunny 80 26.8 54 12.3 41 41 S 17 28 29.91 1013 7 11 N/A
2:15 pm 14:15 Sunny 81 27.3 54 12.2 39 39 S 17 28 29.91 1013 10 16 N/A
2:35 pm 14:35 Sunny 82 27.9 54 12.2 38 38 S 18 30 29.89 1012 10 16 N/A
2:55 pm 14:55 Sunny 83 28.6 54 12.3 37 37 S 20 31 29.88 1012 10 16 N/A
3:15 pm 15:15 Sunny 84 28.7 53 11.8 35 35 S 21 33 29.88 1012 10 16 N/A
3:35 pm 15:35 Sunny 85 29.5 53 11.7 33 33 S 23 37 29.86 1011 10 16 N/A
3:55 pm 15:55 Sunny 85 29.5 51 10.8 31 31 S 22 35 29.86 1011 7 11 N/A
4:15 pm 16:15 Sunny 85 29.5 51 10.7 31 31 S 23 37 29.86 1011 7 11 N/A
4:35 pm 16:35 Sunny 85 29.2 52 11.1 33 33 S 21 33 29.86 1011 7 11 N/A
4:55 pm 16:55 Sunny 85 29.2 51 10.7 32 32 S 20 31 29.86 1011 7 11 N/A
5:15 pm 17:15 Sunny 84 29.1 51 10.4 31 31 S 17 28 29.86 1011 7 11 N/A
5:35 pm 17:35 Sunny 84 28.7 51 10.7 33 33 S 20 31 29.87 1011 10 16 N/A
5:55 pm 17:55 Sunny 83 28.3 52 11 34 34 S 17 28 29.88 1012 10 16 N/A
6:15 pm 18:15 Sunny 81 27.3 53 11.8 38 38 SSE 18 30 29.89 1012 7 11 N/A
6:35 pm 18:35 Sunny 80 26.9 53 11.8 39 39 SSE 15 24 29.90 1013 7 11 N/A
6:55 pm 18:55 Sunny 78 25.7 54 12 43 43 SSE 15 24 29.91 1013 7 11 N/A
7:15 pm 19:15 Sunny 76 24.6 54 12 45 45 SSE 13 20 29.93 1014 7 11 N/A
7:35 pm 19:35 Sunny 74 23.5 54 12 49 49 SE 12 19 29.95 1014 7 11 N/A
7:55 pm 19:55 Clear 73 22.7 53 11.7 50 50 SSE 12 19 29.95 1014 10 16 N/A
8:15 pm 20:15 Clear 72 22 53 11.6 52 52 SSE 10 17 29.96 1015 10 16 N/A
8:35 pm 20:35 Clear 71 21.5 53 11.7 54 54 SSE 12 19 29.97 1015 10 16 N/A
8:55 pm 20:55 Clear 70 20.9 53 11.6 55 55 SSE 13 20 29.99 1016 10 16 N/A
9:15 pm 21:15 Clear 69 20.6 53 11.6 56 56 SSE 12 19 30.00 1016 10 16 N/A
9:35 pm 21:35 Clear 68 20.1 53 11.6 58 58 SSE 13 20 30.01 1016 10 16 N/A
9:55 pm 21:55 Clear 68 19.8 53 11.9 61 61 SSE 12 19 30.01 1016 7 11 N/A
10:15 pm 22:15 Clear 68 19.8 53 11.7 60 60 SSE 14 22 30.01 1016 10 16 N/A
10:35 pm 22:35 Clear 67 19.3 53 11.5 61 61 SSE 12 19 30.02 1017 7 11 N/A
10:55 pm 22:55 Clear 66 19 53 11.5 62 62 SSE 10 17 30.03 1017 7 11 N/A
11:15 pm 23:15 Clear 65 18.6 53 11.5 64 64 SSE 9 15 30.04 1017 7 11 N/A
11:35 pm 23:35 Clear 64 18 53 11.5 66 66 SSE 8 13 30.04 1017 7 11 N/A
11:55 pm 23:55 Clear 64 17.8 53 11.5 67 67 SSE 10 17 30.05 1017 10 16 N/A

Powered by AerisWeather